TimeCEST,TemperatureF,Dew PointF,Humidity,Sea Level PressureIn,VisibilityMPH,Wind Direction,Wind SpeedMPH,Gust SpeedMPH,PrecipitationIn,Events,Conditions,WindDirDegrees,DateUTC
12:00 AM,68.0,55.4,64,30.04,-9999.0,East,4.6,-,N/A,,Clear,100,2012-09-04 22:00:00
12:30 AM,64.4,57.2,77,30.04,-9999.0,East,5.8,-,N/A,,Clear,100,2012-09-04 22:30:00
1:00 AM,68.0,57.2,68,30.04,-9999.0,Variable,2.3,-,N/A,,Clear,0,2012-09-04 23:00:00
1:30 AM,66.2,57.2,73,30.04,-9999.0,Calm,Calm,-,N/A,,Clear,0,2012-09-04 23:30:00
2:00 AM,64.4,57.2,77,30.04,-9999.0,Variable,3.5,-,N/A,,Clear,0,2012-09-05 00:00:00
2:30 AM,64.4,57.2,77,30.04,-9999.0,Variable,2.3,-,N/A,,Clear,0,2012-09-05 00:30:00
3:00 AM,62.6,55.4,77,30.04,-9999.0,Variable,2.3,-,N/A,,Clear,0,2012-09-05 01:00:00
3:30 AM,60.8,57.2,88,30.04,-9999.0,Variable,3.5,-,N/A,,Clear,0,2012-09-05 01:30:00
4:00 AM,62.6,57.2,82,30.01,-9999.0,Variable,2.3,-,N/A,,Clear,0,2012-09-05 02:00:00
4:30 AM,62.6,57.2,82,30.01,-9999.0,Variable,1.2,-,N/A,,Clear,0,2012-09-05 02:30:00
5:00 AM,59.0,55.4,88,30.01,-9999.0,Variable,3.5,-,N/A,,Clear,0,2012-09-05 03:00:00
5:30 AM,60.8,55.4,82,30.01,-9999.0,Variable,1.2,-,N/A,,Clear,0,2012-09-05 03:30:00
6:00 AM,59.0,55.4,88,30.01,4.3,Variable,1.2,-,N/A,,Unknown,0,2012-09-05 04:00:00
6:30 AM,59.0,55.4,88,30.01,5.0,Variable,3.5,-,N/A,,Unknown,0,2012-09-05 04:30:00
7:00 AM,62.6,57.2,82,30.01,4.3,Variable,3.5,-,N/A,,Unknown,0,2012-09-05 05:00:00
7:30 AM,64.4,59.0,83,30.01,4.3,Variable,3.5,-,N/A,,Unknown,0,2012-09-05 05:30:00
8:00 AM,68.0,59.0,73,30.01,5.0,Variable,2.3,-,N/A,,Unknown,0,2012-09-05 06:00:00
8:30 AM,68.0,60.8,78,30.01,-9999.0,NNW,4.6,-,N/A,,Clear,330,2012-09-05 06:30:00
9:00 AM,71.6,60.8,69,30.01,-9999.0,NNW,5.8,-,N/A,,Clear,340,2012-09-05 07:00:00
9:30 AM,73.4,60.8,65,30.01,-9999.0,NNW,4.6,-,N/A,,Clear,330,2012-09-05 07:30:00
10:00 AM,77.0,59.0,54,30.01,-9999.0,Variable,3.5,-,N/A,,Clear,0,2012-09-05 08:00:00
10:30 AM,78.8,59.0,51,30.01,-9999.0,Variable,3.5,-,N/A,,Clear,0,2012-09-05 08:30:00
11:00 AM,78.8,59.0,51,30.01,-9999.0,ENE,4.6,-,N/A,,Clear,60,2012-09-05 09:00:00
11:30 AM,80.6,59.0,48,30.01,-9999.0,East,4.6,-,N/A,,Clear,100,2012-09-05 09:30:00
12:00 PM,82.4,59.0,45,30.01,-9999.0,ENE,4.6,-,N/A,,Clear,60,2012-09-05 10:00:00
12:30 PM,82.4,57.2,42,30.01,-9999.0,NW,5.8,-,N/A,,Clear,320,2012-09-05 10:30:00
1:00 PM,84.2,59.0,42,29.98,-9999.0,Variable,3.5,-,N/A,,Clear,0,2012-09-05 11:00:00
1:30 PM,84.2,57.2,40,29.98,-9999.0,WNW,5.8,-,N/A,,Clear,300,2012-09-05 11:30:00
2:00 PM,84.2,57.2,40,29.98,-9999.0,NNE,6.9,-,N/A,,Clear,20,2012-09-05 12:00:00
2:30 PM,86.0,57.2,37,29.95,6.2,Variable,3.5,-,N/A,,Partly Cloudy,0,2012-09-05 12:30:00
3:00 PM,86.0,55.4,35,29.95,6.2,Variable,3.5,-,N/A,,Partly Cloudy,0,2012-09-05 13:00:00
3:30 PM,86.0,51.8,31,29.95,6.2,Variable,3.5,-,N/A,,Scattered Clouds,0,2012-09-05 13:30:00
4:00 PM,87.8,53.6,31,29.95,6.2,NNW,5.8,-,N/A,,Scattered Clouds,330,2012-09-05 14:00:00
4:30 PM,84.2,59.0,42,29.95,6.2,NNW,12.7,-,N/A,,Scattered Clouds,330,2012-09-05 14:30:00
5:00 PM,82.4,59.0,45,29.95,6.2,NNW,11.5,-,N/A,,Scattered Clouds,330,2012-09-05 15:00:00
5:30 PM,82.4,57.2,42,29.95,6.2,NNW,8.1,-,N/A,,Scattered Clouds,330,2012-09-05 15:30:00
6:00 PM,80.6,55.4,42,29.92,6.2,NW,5.8,-,N/A,,Scattered Clouds,320,2012-09-05 16:00:00
6:30 PM,78.8,55.4,44,29.92,-9999.0,NNW,5.8,-,N/A,,Clear,330,2012-09-05 16:30:00
7:00 PM,75.2,55.4,50,29.92,-9999.0,WNW,6.9,-,N/A,,Clear,290,2012-09-05 17:00:00
7:30 PM,75.2,57.2,53,29.95,-9999.0,Variable,3.5,-,N/A,,Clear,0,2012-09-05 17:30:00
8:00 PM,75.2,57.2,53,29.95,-9999.0,NW,8.1,-,N/A,,Clear,320,2012-09-05 18:00:00
8:30 PM,73.4,59.0,61,29.95,-9999.0,NNW,6.9,-,N/A,,Clear,340,2012-09-05 18:30:00
9:00 PM,73.4,57.2,57,29.95,-9999.0,NNW,5.8,-,N/A,,Clear,330,2012-09-05 19:00:00
9:30 PM,73.4,55.4,53,29.95,-9999.0,West,6.9,-,N/A,,Clear,280,2012-09-05 19:30:00
10:00 PM,71.6,55.4,57,29.95,-9999.0,WNW,4.6,-,N/A,,Clear,300,2012-09-05 20:00:00
10:30 PM,71.6,55.4,57,29.95,-9999.0,Variable,1.2,-,N/A,,Clear,0,2012-09-05 20:30:00
11:00 PM,73.4,55.4,53,29.95,-9999.0,Variable,3.5,-,N/A,,Clear,0,2012-09-05 21:00:00
11:30 PM,71.6,55.4,57,29.95,-9999.0,Variable,3.5,-,N/A,,Clear,0,2012-09-05 21:30:00